カタログに戻る

STARLINK-30056

運用中通信VLEO
NORAD 57622·PAYLOAD·🇺🇸 United States

打ち上げ Aug 11, 2023 から Cape Canaveral Space Force Station

Loading…

次のパス (今後24時間)

TLE

最新Source: CelesTrak SupGP

元期: Sep 14, 2026, 21:08 UTC

1 57622C 23119W   26257.88104167  .00000148  00000+0  53764-5 0  2574
2 57622  43.0000  93.0804 0001369 273.0068 352.1765 15.27569638    12

AllMySatでSTARLINK-30056をリアルタイム追跡

Download on the App Store